{"data":{"norad_id":67136,"epoch":"2026-09-20T05:54:33.249888Z","epoch_age_seconds":127965,"freshness":"FRESH","line1":"1 67136U 25301D   26263.24621817  .00001666  00000+0  24748-3 0  9990","line2":"2 67136  51.8990 285.2476 0000434  58.3647 301.7358 14.79935525 42727","mean_motion":14.79935525,"eccentricity":4.34e-5,"inclination_deg":51.899,"raan_deg":285.2476,"arg_perigee_deg":58.3647,"mean_anomaly_deg":301.7358,"bstar":0.00024748,"rev_number":4272,"period_min":97.301536159827,"perigee_km":629.22352574085,"apogee_km":629.8317910332,"semimajor_km":7007.664658387,"source":"CELESTRAK","updated_at":"2026-09-21T09:00:16.454501Z"}}